Terug naar catalogus

COSMOS 2613

ActiefMilitairSSO
NORAD 68763·PAYLOAD·🇷🇺 Russia

Gelanceerd Apr 16, 2026 vanaf Plesetsk Cosmodrome

Loading…

Volgende Passages (komende 24 uur)

TLE

VersSource: Space-Track

Epoch: Sep 14, 2026, 22:17 UTC

1 68763U 26083J   26257.92886438  .00002089  00000-0  14837-3 0  9994
2 68763  97.7938  36.8446 0008466  56.6769 303.5267 15.05828423 22715

Volg COSMOS 2613 in realtime met AllMySat

Download on the App Store